Flag for U.S.A. Weather past 2 weeks in Dallas, Texas, U.S.A.

Now
54 °F

Passing clouds.


Feels Like: 50 °F
Forecast: 51 / 64 °F
Wind: 13 mph from South

Location: Dallas Love Field

Current Time: Dec 22, 2014 at 3:43:22 AM

Latest Report: Dec 22, 2014 at 2:53 AM


Visibility: 10 mi

Pressure: 29.64 "Hg

Humidity: 80%

Dew point: 48 °F

Location of DallasLocation

Historic Weather in Dallas — Graph

°F

Dallas temperature yesterday

Maximum temperature yesterday: 53 °F (at 11:53 PM)
Minimum temperature yesterday: 48 °F (at 12:53 AM)
Average temperature yesterday: 50 °F

Past Weeks' High & Low Weather Summary

 TemperatureHumidityPressure
High71 °F (Dec 13, 1:53 PM)100% (Dec 9, 5:53 AM)30.42 "Hg (Dec 9, 5:53 AM)
Low41 °F (Dec 9, 3:00 AM)31% (Dec 15, 3:53 PM)29.64 "Hg (Dec 22, 2:53 AM)
Average53 °F78%30.16 "Hg
* Reported Dec 7 2:53 AM — Dec 22 2:53 AM, Dallas, Weather by CustomWeather, © 2014

Note: Actual official high and low records may vary slightly from our data, if they occured in-between our weather recording intervals... More about our weather records

Advertising

Dallas weather history for previous 24 hours

 ConditionsComfort  
Time TempWeatherWind HumidityBarometerVisibility
2:53 AM
Dec 22
54 °FPassing clouds.13 mph80%29.64 "Hg10 mi
1:53 AM54 °FOvercast.16 mph83%29.66 "Hg10 mi
12:53 AM54 °FOvercast.16 mph83%29.69 "Hg10 mi
11:53 PM
Dec 21
53 °FMostly cloudy.15 mph83%29.72 "Hg8 mi
10:53 PM52 °FOvercast.16 mph86%29.76 "Hg8 mi
9:53 PM52 °FMostly cloudy.16 mph83%29.78 "Hg8 mi
8:53 PM51 °FMostly cloudy.15 mph83%29.80 "Hg9 mi
7:53 PM52 °FMostly cloudy.15 mph80%29.81 "Hg9 mi
6:53 PM52 °FMostly cloudy.16 mph80%29.82 "Hg10 mi
5:53 PM52 °FMostly cloudy.15 mph77%29.84 "Hg10 mi
4:53 PM52 °FMostly cloudy.14 mph75%29.85 "Hg10 mi
3:53 PM52 °FMostly cloudy.12 mph75%29.86 "Hg10 mi
2:53 PM52 °FOvercast.16 mph75%29.88 "Hg10 mi
1:53 PM51 °FOvercast.10 mph77%29.92 "Hg9 mi
12:53 PM51 °FMostly cloudy.12 mph77%29.96 "Hg8 mi
11:53 AM51 °FOvercast.13 mph77%30.02 "Hg8 mi
10:53 AM49 °FMore clouds than sun.14 mph84%30.06 "Hg6 mi
9:53 AM48 °FMore clouds than sun.12 mph83%30.09 "Hg6 mi
8:53 AM48 °FMore clouds than sun.12 mph83%30.10 "Hg7 mi
7:53 AM48 °FOvercast.14 mph80%30.09 "Hg7 mi
6:53 AM48 °FOvercast.13 mph83%30.11 "Hg8 mi
5:53 AM48 °FOvercast.12 mph83%30.11 "Hg8 mi
4:53 AM48 °FOvercast.12 mph83%30.11 "Hg9 mi
3:53 AM48 °FOvercast.8 mph86%30.12 "Hg8 mi
Weather by CustomWeather, © 2014

See weather overviewHow to use our weather pages